TimeMDT,TemperatureF,Dew PointF,Humidity,Sea Level PressureIn,VisibilityMPH,Wind Direction,Wind SpeedMPH,Gust SpeedMPH,PrecipitationIn,Events,Conditions,WindDirDegrees,DateUTC
12:15 AM,32.0,24.8,75,30.05,-9999.0,North,6.9,-,N/A,,Clear,10,2013-04-01 06:15:00
12:16 AM,32.0,24.8,75,30.05,-9999.0,North,8.1,-,N/A,,Clear,10,2013-04-01 06:16:00
12:35 AM,28.4,24.8,86,30.05,10.0,NNE,6.9,-,N/A,,Clear,30,2013-04-01 06:35:00
12:55 AM,28.4,24.8,86,30.04,10.0,North,9.2,-,N/A,,Clear,10,2013-04-01 06:55:00
1:15 AM,28.4,24.8,86,30.04,10.0,North,6.9,-,N/A,,Clear,360,2013-04-01 07:15:00
1:35 AM,30.2,24.8,80,30.04,10.0,NE,3.5,-,N/A,,Clear,40,2013-04-01 07:35:00
1:55 AM,28.4,24.8,86,30.05,10.0,North,4.6,-,N/A,,Clear,350,2013-04-01 07:55:00
2:15 AM,26.6,24.8,93,30.05,10.0,NNW,3.5,-,N/A,,Clear,340,2013-04-01 08:15:00
2:55 AM,28.4,24.8,86,30.05,10.0,Calm,Calm,-,N/A,,Clear,0,2013-04-01 08:55:00
3:15 AM,28.4,24.8,86,30.05,10.0,North,3.5,-,N/A,,Clear,10,2013-04-01 09:15:00
3:35 AM,26.6,23.0,86,30.05,10.0,North,6.9,-,N/A,,Clear,10,2013-04-01 09:35:00
3:55 AM,26.6,23.0,86,30.05,10.0,North,8.1,-,N/A,,Clear,10,2013-04-01 09:55:00
4:15 AM,26.6,23.0,86,30.05,10.0,NNE,4.6,-,N/A,,Clear,30,2013-04-01 10:15:00
4:55 AM,28.4,23.0,80,30.05,10.0,Calm,Calm,-,N/A,,Clear,0,2013-04-01 10:55:00
5:15 AM,26.6,23.0,86,30.06,-9999.0,Calm,Calm,-,N/A,,Unknown,0,2013-04-01 11:15:00
5:35 AM,26.6,23.0,86,30.06,10.0,NW,3.5,-,N/A,,Clear,310,2013-04-01 11:35:00
5:56 AM,23.0,21.2,93,30.06,10.0,NNE,3.5,-,N/A,,Clear,20,2013-04-01 11:56:00
6:15 AM,24.8,21.2,86,30.06,10.0,North,4.6,-,N/A,,Clear,10,2013-04-01 12:15:00
6:35 AM,21.2,19.4,93,30.06,10.0,Calm,Calm,-,N/A,,Clear,0,2013-04-01 12:35:00
6:52 AM,23.0,21.2,93,30.06,10.0,Calm,Calm,-,N/A,,Clear,0,2013-04-01 12:52:00
7:53 AM,23.0,21.2,93,30.07,10.0,Calm,Calm,-,N/A,,Clear,0,2013-04-01 13:53:00
8:52 AM,30.2,24.8,80,30.07,10.0,Calm,Calm,-,N/A,,Clear,0,2013-04-01 14:52:00
9:52 AM,35.6,24.8,65,30.06,10.0,Calm,Calm,-,N/A,,Clear,0,2013-04-01 15:52:00
10:55 AM,39.2,26.6,61,30.04,10.0,Calm,Calm,-,N/A,,Clear,0,2013-04-01 16:55:00
11:46 AM,44.6,28.4,53,30.09,15.0,NNW,12.7,-,N/A,,Mostly Cloudy,340,2013-04-01 17:46:00
11:52 AM,42.8,24.8,49,30.02,10.0,Calm,Calm,-,N/A,,Clear,0,2013-04-01 17:52:00
12:52 PM,48.2,24.8,40,30.00,10.0,South,5.8,-,N/A,,Clear,190,2013-04-01 18:52:00
1:52 PM,50.0,24.8,37,29.99,10.0,Calm,Calm,-,N/A,,Clear,0,2013-04-01 19:52:00
2:55 PM,53.6,23.0,30,29.97,10.0,Calm,Calm,-,N/A,,Clear,0,2013-04-01 20:55:00
3:52 PM,53.6,21.2,28,29.96,10.0,North,3.5,-,N/A,,Clear,360,2013-04-01 21:52:00
4:53 PM,53.6,21.2,28,29.95,10.0,Calm,Calm,-,N/A,,Clear,0,2013-04-01 22:53:00
5:51 PM,55.4,19.4,25,29.94,10.0,Calm,Calm,-,N/A,,Mostly Cloudy,0,2013-04-01 23:51:00
6:51 PM,51.8,24.8,35,29.94,10.0,Calm,Calm,-,N/A,,Mostly Cloudy,0,2013-04-02 00:51:00
7:52 PM,44.6,26.6,49,29.96,10.0,Calm,Calm,-,N/A,,Mostly Cloudy,0,2013-04-02 01:52:00
8:51 PM,42.8,26.6,53,29.98,10.0,Calm,Calm,-,N/A,,Clear,0,2013-04-02 02:51:00
8:55 PM,44.6,26.6,49,29.98,10.0,NNE,8.1,-,N/A,,Clear,20,2013-04-02 02:55:00
9:15 PM,44.6,24.8,46,29.99,10.0,NNE,8.1,-,N/A,,Scattered Clouds,30,2013-04-02 03:15:00
9:35 PM,44.6,24.8,46,29.99,10.0,NNW,10.4,-,N/A,,Scattered Clouds,340,2013-04-02 03:35:00
9:55 PM,42.8,26.6,53,30.00,10.0,NNW,11.5,-,N/A,,Mostly Cloudy,340,2013-04-02 03:55:00
10:15 PM,42.8,26.6,53,30.00,10.0,NNW,13.8,17.3,N/A,,Scattered Clouds,340,2013-04-02 04:15:00
10:35 PM,42.8,26.6,53,30.00,10.0,North,16.1,23.0,N/A,,Clear,350,2013-04-02 04:35:00
10:55 PM,42.8,26.6,53,30.01,10.0,North,17.3,20.7,N/A,,Clear,360,2013-04-02 04:55:00
11:15 PM,41.0,26.6,57,30.01,10.0,North,12.7,-,N/A,,Clear,360,2013-04-02 05:15:00
11:35 PM,41.0,26.6,57,30.01,10.0,North,13.8,-,N/A,,Clear,350,2013-04-02 05:35:00
11:55 PM,41.0,26.6,57,30.01,10.0,North,10.4,-,N/A,,Clear,10,2013-04-02 05:55:00